Regional Weather Roundup
Issued by NWS

Home | Current Version | Previous Version | Graphics & Text | Print | Product List | Glossary On
Versions: 1 2 3 4 5 6 7 8 9 10 11 12 13 14 15 16 17 18 19 20 21 22 23 24 25 26 27 28 29 30 31 32 33 34 35 36 37 38 39 40 41 42 43 44 45 46 47 48 49 50
000
ASUS43 KMPX 282001
RWRMN
WEATHER ROUNDUP FOR MINNESOTA
NATIONAL WEATHER SERVICE TWIN CITIES/CHANHASSEN MN
300 PM CDT WED JUN 28 2017


NOTE: "FAIR" INDICATES FEW OR NO CLOUDS BELOW 12,000 FEET WITH NO
SIGNIFICANT WEATHER AND/OR OBSTRUCTIONS TO VISIBILITY. N/A MEANS
CURRENT SKY AND/OR WEATHER CONDITIONS ARE NOT AVAILABLE.

MNZ060>063-068>070-282100-
   Twin Cities Metro

CITY           SKY/WX    TMP DP  RH WIND       PRES   REMARKS
TWIN CITIES    PTSUNNY   82  65  56 SW10G21   29.51F
ST PAUL        CLOUDY    78  69  73 S12       29.51F
CRYSTAL        PTSUNNY   80  65  59 S15G23    29.48F THUNDER
BLAINE         CLOUDY    79  70  73 S14G21    29.50F
LAKEVILLE      CLOUDY    81  70  69 S12G23    29.52F
EDEN PRAIRIE   CLOUDY    84  68  58 SW14G20   29.50F
SOUTH ST PAUL  MOSUNNY   80  67  65 S12G17    29.52F
LAKE ELMO      FAIR      77  70  78 S14       29.54F
$$
MNZ001>005-007-008-013>017-022>024-027-028-282100-
   Northwest Minnesota

CITY           SKY/WX    TMP DP  RH WIND       PRES   REMARKS
BEMIDJI        CLOUDY    62  59  90 E10       29.53R
HALLOCK        DRIZZLE   64  63  94 CALM      29.58R
ROSEAU         LGT RAIN  61  55  82 E6        29.58S
WARROAD        RAIN      59  55  88 E12       29.59S
CROOKSTON      RAIN      61  59  94 NE9       29.55R
FOSSTON        RAIN      61  59  94 N5        29.52R
DETROIT LAKES  LGT RAIN  63  61  94 NW12      29.52R
MOORHEAD       CLOUDY    66  61  82 NW15G22   29.52R
PARK RAPIDS    CLOUDY    65  59  81 E8        29.50S
MAHNOMEN       CLOUDY    62  61  97 E3        29.50R
$$
MNZ006-009>011-018-025>026-282100-
   North Central Minnesota

CITY           SKY/WX    TMP DP  RH WIND       PRES   REMARKS
BAUDETTE       LGT RAIN  60  59  96 NE9       29.57F
FLAG ISLAND    DRIZZLE   61  57  88 NE7       29.59S
INTL FALLS     LGT RAIN  63  59  87 E10       29.59S
WASKISH        CLOUDY    64  61  88 E8        29.54S
BIG FORK       DRIZZLE   64  59  82 E5        29.56S
LONGVILLE      CLOUDY    61  59  94 NE5       29.52S FOG
GRAND RAPIDS   LGT RAIN  58  57  97 E7        29.56F FOG
CRANE LAKE     LGT RAIN  63  59  88 CALM      29.62S
ORR            DRIZZLE   61  55  82 CALM      29.57S
COOK           RAIN      59  57  94 E5        29.59F
WALKER         CLOUDY    61  58  91 E6        29.52R
$$
MNZ012-019>021-037-282100-
   Northeast Minnesota

CITY           SKY/WX    TMP DP  RH WIND       PRES   REMARKS
DULUTH         LGT RAIN  56  56 100 E13       29.57F FOG
ELY            LGT RAIN  57  55  94 E7        29.62F
HIBBING        RAIN      57  57 100 E9        29.56F FOG
EVELETH        RAIN      58  55  91 E7        29.59F
DULUTH HARBOR  RAIN      50  48  93 NE23      29.57F
TWO HARBORS    LGT RAIN  59  54  82 NE10      29.58F
SILVER BAY     LGT RAIN  55  55 100 NE6       29.61F
GRAND MARAIS     N/A     53  47  79 E12       29.65F
G MARAIS ARPRT DRIZZLE   57  52  82 NE7       29.68F
$$
MNZ029>031-032-039>041-046>048-054>057-064-282100-
   West Central Minnesota

CITY           SKY/WX    TMP DP  RH WIND       PRES   REMARKS
FERGUS FALLS   CLOUDY    68  63  83 NW21      29.49R
WHEATON        MOSUNNY   73  61  64 W17G25    29.55R
MORRIS         PTSUNNY   77  63  61 NW20G29   29.52R HAZE
ALEXANDRIA     CLOUDY    69  64  84 W17G25    29.52R
ELBOW LAKE     CLOUDY    70  63  79 NW16G24   29.53R
WADENA         CLOUDY    66  63  88 W3        29.49R
GLENWOOD       CLOUDY    72  64  78 W18G25    29.53R
APPLETON       MOSUNNY   79  61  53 W21G29    29.54R
BENSON         CLOUDY    79  63  57 NW16G25   29.55R
ORTONVILLE     MOSUNNY   77  61  57 NW16      29.55R
MADISON        MOSUNNY   82  63  51 NW24      29.55R
WILLMAR        PTSUNNY   75  64  69 W18G26    29.55R
$$
MNZ033>034-036-042>043-049>051-058-059-282100-
   Central Minnesota

CITY           SKY/WX    TMP DP  RH WIND       PRES   REMARKS
ST CLOUD       CLOUDY    70  66  87 SW9       29.51S
SAUK CENTRE    CLOUDY    70  64  81 W16G22    29.51R
PAYNESVILLE    CLOUDY    71  67  84 W15       29.53R
AITKIN         LGT RAIN  64  63  94 E3        29.49F
PINE RIVER     CLOUDY    63  63 100 E6        29.54S
BRAINERD       LGT RAIN  66  65  96 SE3       29.49S FOG
STAPLES        DRIZZLE   64  64 100 CALM      29.49R
LONG PRAIRIE   CLOUDY    66  63  88 SW12      29.50S
LITTLE FALLS   CLOUDY    66  63  88 SW14      29.49S
LITCHFIELD     CLOUDY    79  68  69 W9        29.53S
BUFFALO        CLOUDY    76  65  69 W6        29.51F
MAPLE LAKE     PTSUNNY   76  68  74 SW7       29.52F
HUTCHINSON     CLOUDY    77  67  72 W13G21    29.54S
$$
MNZ037-044-045-052-053-282100-
   East Central Minnesota

CITY           SKY/WX    TMP DP  RH WIND       PRES   REMARKS
PRINCETON      CLOUDY    72  68  88 SW6       29.51F
MORA           LGT RAIN  64  63  94 S8        29.54S
CAMBRIDGE      CLOUDY    73  66  78 S7        29.50F
RUSH CITY      LGT RAIN  68  66  94 S8        29.52F
MOOSE LAKE     RAIN      59  57  94 N3        29.53S
HINCKLEY       CLOUDY    68  68 100 S9        29.53F
CLOQUET        LGT RAIN  55  54  94 E8        29.56F
MCGREGOR       CLOUDY    63  63 100 E9        29.52F
$$
MNZ071>073-080-081-089-090-097-098-282100-
   Southwest Minnesota

CITY           SKY/WX    TMP DP  RH WIND       PRES   REMARKS
MONTEVIDEO     MOSUNNY   81  63  54 NW13G22   29.54R
GRANITE FALLS  SUNNY     82  64  54 W18G28    29.56S
CANBY          SUNNY     84  60  44 NW21      29.58S
MARSHALL       SUNNY     83  65  54 W22       29.56S
REDWOOD FALLS  MOSUNNY   83  62  49 W22G30    29.54S
OLIVIA         MOSUNNY   79  64  61 W20G26    29.53S
PIPESTONE      MOSUNNY   84  61  45 NW17      29.62S
WINDOM         SUNNY     82  64  54 W17G24    29.60S
WORTHINGTON    MOSUNNY   81  65  58 W18G24    29.62S
JACKSON        SUNNY     81  63  54 SW16      29.61S
TRACY          SUNNY     81  67  61 W12G18    29.58S
SLAYTON        MOSUNNY   80  64  59 W18       29.62S
$$
MNZ065>067-074>077-082>085-091>093-282100-
   South Central Minnesota

CITY           SKY/WX    TMP DP  RH WIND       PRES   REMARKS
MANKATO        PTSUNNY   82  68  62 SW17G24   29.56S
NEW ULM        PTSUNNY   81  66  61 SW16      29.55F
ST JAMES       CLOUDY    82  66  57 SW17G24   29.58S
FAIRMONT       CLOUDY    82  70  66 SW14      29.60S
GLENCOE        DRIZZLE   78  70  76 SW10G17   29.53S
FARIBAULT      MOSUNNY   82  66  57 SW15G23   29.56F
OWATONNA       MOSUNNY   81  72  74 S20G30    29.58S
WASECA         MOSUNNY   79  64  61 SW18G26   29.59F
ALBERT LEA     MOSUNNY   77  70  78 S12G21    29.61S
$$
MNZ078>079-086>088-094>096-282100-
   Southeast Minnesota

CITY           SKY/WX    TMP DP  RH WIND       PRES   REMARKS
ROCHESTER      PTSUNNY   71  67  87 S18G28    29.63S
RED WING       MOSUNNY   79  66  65 S8        29.56F THUNDER
STANTON        CLOUDY    80  69  70 S13G21    29.53F
DODGE CENTER   MOSUNNY   77  70  78 S20G29    29.61S
WINONA         CLOUDY    73  66  78 S7        29.61F
AUSTIN         PTSUNNY   72  66  83 SW10      29.63S
PRESTON        CLOUDY    69  65  87 S21       29.65F
$$
ABBREVIATIONS USED IN REMARKS
   TC - TEMPERATURES IN CELSIUS
  WCI - WIND CHILL INDEX
   HX - HEAT INDEX
  VSB - VISIBILITY
$$




USA.gov is the U.S. government's official web portal to all federal, state and local government web resources and services.